Weather History for Jefferson City, MO

Change the Weather History Date:

Sunday, January 12, 2014

  Actual Average Record
Temperature  
Mean Temperature 46 °F -  
Max Temperature 66 °F 36 °F 69 °F (1936)
Min Temperature 27 °F 15 °F -20 °F (1918)
Degree Days  
Heating Degree Days 18    
Moisture  
Dew Point 27 °F    
Average Humidity 52    
Maximum Humidity 96    
Minimum Humidity 23    
Precipitation  
Precipitation 0.00 in - - ()
Sea Level Pressure  
Sea Level Pressure 29.72 in    
Wind  
Wind Speed 8 mph (SSE)    
Max Wind Speed 24 mph    
Max Gust Speed 36 mph    
Visibility 10 miles    
Events      
Averages and records for this station are not official NWS values.
T = Trace of Precipitation, MM = Missing Value Source: NWS Daily Summary

Daily Weather History Graph

Daily Weather History Graph

Search for Another Location

Airport:

Trip Planner

Search our weather history database for the weather conditions in past years. The results will help you decide how hot, cold, wet, or windy it might be!

Date:

Astronomy

Jan. 12, 2014 Rise Set
Actual Time 7:25 AM CST 5:08 PM CST
Civil Twilight 6:56 AM CST 5:37 PM CST
Nautical Twilight 6:23 AM CST 6:10 PM CST
Astronomical Twilight 5:51 AM CST 6:42 PM CST
Moon 2:36 PM CST (1/12) 4:25 AM CST (1/12)
Length of Visible Light 10h 41m
Length of Day
9h 42m
Waxing Gibbous, 90% of the Moon is Illuminated
Jan 12
Waxing Gibbous
Jan 15
Full
Jan 23
Last Quarter
Jan 30
New
Feb 6
First Quarter

Hourly Weather History & Observations

Time (CST) Temp. Windchill Dew Point Humidity Pressure Visibility Wind Dir Wind Speed Gust Speed Precip Events Conditions
12:53 AM 28.0 °F - 26.1 °F 92% 29.92 in 10.0 mi Calm Calm - N/A   Clear
1:53 AM 27.0 °F 20.5 °F 26.1 °F 96% 29.91 in 10.0 mi ESE 5.8 mph - N/A   Clear
2:53 AM 28.9 °F 25.2 °F 26.1 °F 89% 29.91 in 10.0 mi ESE 3.5 mph - N/A   Clear
3:53 AM 32.0 °F 26.4 °F 28.0 °F 85% 29.90 in 10.0 mi ESE 5.8 mph - N/A   Clear
4:53 AM 30.0 °F 25.2 °F 26.1 °F 85% 29.89 in 10.0 mi SE 4.6 mph - N/A   Clear
5:53 AM 33.1 °F 28.7 °F 28.0 °F 82% 29.88 in 10.0 mi ESE 4.6 mph - N/A   Clear
6:53 AM 30.9 °F 26.2 °F 27.0 °F 85% 29.86 in 10.0 mi ESE 4.6 mph - N/A   Clear
7:53 AM 28.9 °F 21.9 °F 25.0 °F 85% 29.86 in 10.0 mi ESE 6.9 mph - N/A   Clear
8:53 AM 37.0 °F 31.6 °F 28.0 °F 70% 29.85 in 10.0 mi East 6.9 mph - N/A   Clear
9:53 AM 46.9 °F - 28.0 °F 48% 29.81 in 10.0 mi SSE 11.5 mph 19.6 mph N/A   Clear
10:53 AM 54.0 °F - 26.1 °F 34% 29.75 in 10.0 mi South 18.4 mph 26.5 mph N/A   Clear
11:53 AM 60.1 °F - 26.1 °F 27% 29.67 in 10.0 mi South 24.2 mph 35.7 mph N/A   Clear
12:53 PM 62.1 °F - 27.0 °F 26% 29.61 in 10.0 mi South 20.7 mph 28.8 mph N/A   Clear
1:53 PM 64.0 °F - 28.0 °F 26% 29.58 in 10.0 mi South 18.4 mph 28.8 mph N/A   Clear
2:53 PM 66.0 °F - 27.0 °F 23% 29.55 in 10.0 mi SSW 17.3 mph 29.9 mph N/A   Clear
3:53 PM 64.9 °F - 28.0 °F 25% 29.55 in 10.0 mi South 15.0 mph 23.0 mph N/A   Clear
4:53 PM 64.0 °F - 27.0 °F 25% 29.55 in 10.0 mi South 10.4 mph - N/A   Clear
5:53 PM 62.1 °F - 26.1 °F 25% 29.58 in 10.0 mi South 9.2 mph - N/A   Clear
6:53 PM 60.1 °F - 26.1 °F 27% 29.62 in 10.0 mi South 9.2 mph - N/A   Clear
7:53 PM 57.0 °F - 27.0 °F 32% 29.62 in 10.0 mi SSE 8.1 mph - N/A   Clear
8:53 PM 55.9 °F - 28.0 °F 34% 29.62 in 10.0 mi SSE 10.4 mph - N/A   Clear
9:53 PM 55.0 °F - 28.9 °F 37% 29.60 in 10.0 mi SSE 11.5 mph - N/A   Clear
10:53 PM 55.0 °F - 28.9 °F 37% 29.58 in 10.0 mi SSE 11.5 mph - N/A   Clear
11:53 PM 51.1 °F - 30.0 °F 44% 29.58 in 10.0 mi ESE 6.9 mph - N/A   Clear